Location: Unspecified
(0.0000°N, 0.0000°E)
Time: 07:20:55
(UTC+00:00)

RS-15 - Pass Details

Date: 15 December 2017
Orbit: 1886 x 2158 km, 64.8° (Epoch: 14 January)

Event Time Altitude Azimuth Distance (km) Brightness Sun altitude
Exits shadow 03:38:24 12° 234° (SW) 4,095 9.5 -31.1°
Drops below altitude 10° 03:40:32 10° 222° (SW) 4,268 9.7 -30.6°
Sets 03:46:44 0° 196° (SSW) 5,265 10.4 -29.2°
